Temperature
8 9 9 10 11 11 12 12 13 13 13 13 13 14 14 14 14 14 14 14 14 15 15 15 16 16 16 16 16 16 16 16 16 17 17 17 17 17 17 17 17 17 17
8 9 9 10 11 11 12 12 12 13 13 13 13 13 13 13 14 14 14 14 14 14 14 15 15 16 16 16 16 16 16 16 16 16 17 17 16 16 16 17 17 17 17
9 9 10 10 11 11 12 12 12 12 12 13 13 13 13 13 13 13 13 13 14 14 14 14 14 15 15 16 16 16 16 16 16 16 16 16 16 16 16 16 17 17 17
9 10 10 10 11 11 11 11 12 12 12 12 12 12 12 12 12 12 13 13 13 13 13 13 14 14 14 15 15 16 16 16 16 16 16 16 16 16 16 16 17 17 17
9 10 10 10 10 11 11 11 11 11 11 12 12 12 12 12 12 12 12 12 12 12 13 13 13 13 14 14 14 15 15 16 16 16 16 16 16 16 16 16 16 17 17
9 9 10 10 10 10 10 10 11 11 11 11 11 11 11 12 11 11 12 12 12 12 12 12 12 13 13 13 14 14 14 15 15 15 16 16 16 16 16 16 16 16 17
9 9 9 9 10 10 10 10 10 10 10 10 10 10 11 11 11 11 11 11 11 11 11 12 12 12 12 13 13 13 14 14 14 15 15 16 16 15 16 16 16 16 16
8 9 9 9 9 9 9 9 9 9 9 9 9 9 9 10 10 10 10 10 10 11 11 11 11 12 12 12 13 13 13 13 14 14 15 15 15 15 15 16 16 16 16
8 8 8 8 8 8 8 8 8 8 7 7 7 7 7 7 8 8 8 9 9 9 10 10 10 11 11 12 12 12 13 13 13 14 14 15 15 15 15 16 16 16 16
7 8 8 7 7 7 7 7 6 6 6 5 5 5 5 5 6 6 6 7 7 8 8 8 9 10 11 11 11 12 12 13 13 13 14 14 15 15 15 15 16 16 16
7 7 7 6 6 6 5 5 5 4 4 4 3 3 3 4 4 4 5 5 5 6 6 7 8 9 10 10 11 11 11 12 12 13 13 14 14 14 15 15 15 15 16
6 5 5 5 4 4 4 3 3 3 2 2 2 1 1 1 2 2 3 4 4 4 5 5 6 7 8 9 10 10 11 11 11 12 12 13 14 14 14 15 15 15 15
4 4 4 3 3 2 2 2 2 1 1 1 1 -0 -0 0 0 1 2 2 2 3 3 4 5 5 6 7 8 9 10 10 11 11 12 12 13 13 14 14 15 15 15
3 2 2 2 2 2 1 1 1 1 0 -0 -1 -1 -2 -1 -1 -1 -0 -0 0 0 1 2 3 3 4 5 6 8 9 9 10 10 11 12 12 13 13 14 14 15 15
2 1 1 1 1 1 1 1 0 0 -0 -1 -2 -2 -3 -3 -3 -3 -2 -2 -2 -2 -1 -0 1 2 3 4 5 6 7 8 9 10 10 11 12 12 13 13 14 14 14
2 1 1 1 1 1 0 0 -0 -1 -1 -2 -2 -3 -3 -4 -4 -4 -4 -4 -4 -4 -3 -2 -1 -1 1 2 3 4 5 7 8 9 10 10 11 12 12 13 13 14 14
1 1 1 0 0 0 -0 -0 -1 -1 -2 -2 -3 -3 -4 -4 -5 -5 -5 -5 -6 -5 -5 -4 -3 -2 -1 1 2 3 4 5 7 8 9 10 10 11 12 12 13 13 14
1 1 0 -0 -0 -0 -0 -1 -1 -2 -2 -3 -3 -4 -4 -5 -5 -5 -6 -6 -6 -6 -6 -5 -5 -4 -3 -2 0 2 3 4 6 7 8 9 10 10 11 12 12 13 13
1 0 -0 -1 -1 -1 -1 -1 -2 -2 -3 -3 -4 -5 -5 -5 -6 -6 -7 -7 -7 -7 -7 -7 -7 -6 -5 -4 -3 -1 2 3 4 5 7 8 9 9 10 11 11 12 12
0 -0 -1 -1 -1 -1 -1 -1 -2 -2 -3 -4 -4 -5 -6 -6 -7 -7 -8 -8 -8 -8 -7 -7 -8 -7 -7 -6 -5 -3 -0 2 3 4 5 6 8 9 9 10 10 11 12
0 -1 -2 -2 -2 -2 -2 -3 -3 -3 -4 -4 -5 -6 -6 -7 -7 -8 -8 -8 -8 -8 -8 -8 -8 -8 -7 -7 -6 -5 -1 1 2 2 3 4 6 7 8 9 10 10 11
-1 -2 -3 -3 -3 -3 -4 -4 -5 -5 -5 -6 -6 -7 -7 -8 -8 -9 -9 -9 -9 -9 -9 -9 -9 -9 -8 -7 -7 -6 -4 -3 -0 2 2 3 4 5 7 8 9 9 10
-2 -3 -3 -3 -4 -4 -5 -5 -5 -5 -5 -6 -7 -7 -8 -8 -9 -10 -10 -10 -10 -10 -10 -10 -10 -10 -9 -8 -7 -7 -5 -4 -5 -2 -0 1 2 3 4 6 7 8 9
-3 -3 -3 -4 -4 -5 -5 -6 -7 -7 -7 -8 -8 -9 -9 -9 -9 -10 -10 -11 -11 -11 -11 -10 -10 -10 -10 -9 -8 -7 -7 -6 -5 -4 -3 -1 0 1 3 4 6 8 8
-3 -3 -4 -4 -5 -5 -6 -7 -7 -8 -8 -9 -9 -9 -9 -10 -10 -11 -11 -11 -11 -11 -11 -11 -11 -10 -10 -10 -9 -8 -7 -6 -6 -5 -5 -3 -1 1 1 3 5 7 8
-3 -4 -4 -5 -5 -6 -7 -7 -8 -8 -9 -9 -10 -10 -10 -11 -11 -11 -12 -12 -12 -12 -12 -11 -11 -11 -10 -10 -9 -8 -8 -7 -6 -6 -6 -5 -4 -2 0 2 4 5 7
Wind_Speed
10 25 30 31 31 32 32 32 32 32 31 32 31 31 30 28 26 24 21 19 17 15 14 14 14 14 14 14 13 11 9 8 8 6 4 4 4 4 4 4 2 2 6
16 25 29 31 31 31 31 31 31 31 31 32 32 31 31 30 29 28 27 24 22 19 17 16 15 15 15 15 14 13 12 10 9 8 7 6 6 6 6 5 3 6 7
21 26 28 31 32 31 31 31 31 31 31 31 32 32 31 30 30 30 29 29 27 25 22 20 18 16 16 16 16 15 14 12 11 10 9 8 8 9 9 8 7 7 8
24 26 28 31 31 31 31 31 31 31 31 31 31 32 31 31 30 29 29 29 29 28 27 25 22 19 18 17 16 16 16 15 13 11 10 9 9 10 12 12 11 10 9
25 27 28 31 32 31 31 32 31 31 31 31 31 31 31 31 30 29 29 29 29 28 28 28 26 24 21 19 17 16 16 17 16 13 11 11 11 12 13 15 14 13 12
23 27 28 31 32 31 31 32 32 31 31 31 31 31 31 31 30 29 30 30 29 29 28 28 27 27 25 22 20 18 17 17 16 14 13 13 12 14 15 17 17 15 14
21 26 28 32 32 32 31 32 31 31 31 31 31 31 31 31 30 29 30 30 30 29 29 28 27 27 27 26 23 21 19 17 16 14 14 14 14 16 16 18 19 18 16
20 24 27 31 32 32 31 32 31 31 31 31 31 31 30 31 30 29 30 31 30 30 29 28 27 28 28 27 26 23 21 19 15 13 14 15 18 18 17 18 20 19 18
21 25 27 29 30 31 30 31 31 30 31 30 30 30 30 30 29 29 31 31 31 30 29 28 28 29 28 27 26 26 25 22 17 13 15 14 17 19 19 20 21 21 20
20 23 26 28 30 29 28 29 30 29 30 30 30 30 29 28 28 28 30 31 31 30 29 29 29 29 28 26 26 26 26 21 15 15 14 15 20 21 21 21 23 23 22
17 20 25 27 29 29 26 27 28 28 29 29 28 29 27 25 25 25 29 30 31 30 29 29 30 29 28 26 26 27 22 17 18 14 14 18 21 23 24 23 24 25 24
14 14 22 25 28 28 25 24 24 24 26 26 26 27 24 24 24 26 27 29 29 29 29 29 30 27 25 22 23 23 17 20 16 14 15 20 23 24 24 25 25 26 26
9 13 20 23 26 25 23 22 22 22 23 24 26 26 24 23 23 23 23 24 25 25 24 26 24 22 22 21 20 19 19 18 15 16 17 21 23 24 24 25 27 27 28
10 12 15 19 23 23 22 22 21 21 21 22 24 25 24 21 20 21 20 22 21 20 22 21 20 22 22 22 21 19 19 17 17 16 17 22 24 23 23 24 27 28 29
9 9 11 17 22 23 21 22 21 22 22 23 23 24 25 21 19 20 20 20 20 21 20 19 19 19 19 19 19 19 18 19 19 18 17 23 25 24 23 24 26 28 29
8 9 12 16 22 22 21 21 21 22 23 23 23 25 26 23 21 20 19 18 18 21 21 19 19 16 15 15 15 17 18 19 18 19 19 21 23 23 23 22 24 27 28
6 8 11 17 20 20 19 21 21 22 23 22 22 24 26 25 24 22 18 16 19 21 21 19 18 16 13 13 15 15 15 15 17 19 20 18 18 20 22 21 21 24 27
7 8 10 18 18 18 18 19 19 20 21 21 22 23 25 25 25 22 17 15 21 20 18 14 10 13 13 13 14 14 13 14 17 18 17 17 16 15 17 20 20 21 24
7 7 8 13 15 16 17 17 17 17 18 19 21 22 24 25 25 23 17 18 21 17 14 13 12 13 14 14 14 14 13 15 16 15 14 14 14 14 14 17 19 19 21
6 6 7 11 14 16 16 15 13 14 16 18 19 21 23 24 25 22 18 19 19 12 10 11 14 13 13 14 16 16 15 15 12 10 11 10 11 12 12 13 12 13 18
8 9 9 9 10 12 9 10 11 11 10 14 19 21 22 24 24 21 18 17 17 10 12 13 14 14 13 13 14 16 12 11 10 6 7 9 10 12 12 10 9 10 10
6 7 7 8 7 10 9 8 8 7 7 13 16 18 20 22 22 20 19 16 15 10 11 13 14 11 12 12 12 12 8 7 6 10 7 7 8 11 12 12 11 9 9
5 6 8 7 7 10 13 11 11 6 6 7 7 9 19 22 21 20 20 18 16 10 10 12 11 13 13 12 9 7 6 6 13 7 6 6 9 11 10 11 11 12 11
4 5 7 7 7 10 13 9 10 11 10 10 8 9 18 20 20 20 21 18 16 13 11 12 12 11 12 12 11 7 9 10 7 8 7 6 9 11 11 11 12 12 12
5 6 7 8 7 9 11 9 9 9 8 9 10 10 9 15 18 20 20 18 16 13 11 12 12 12 10 12 11 11 11 10 9 9 14 14 12 8 9 11 11 10 10
6 7 7 8 8 8 9 8 10 11 11 14 14 11 11 9 12 18 20 18 17 14 12 12 11 13 11 13 11 10 10 9 9 8 12 16 16 13 12 10 9 9 7
Wind_Direction
342 357 5 11 15 18 20 21 22 22 22 20 18 15 12 10 7 4 359 353 347 341 337 333 330 328 324 320 317 315 309 303 299 296 290 277 242 204 171 149 155 180 171
356 5 8 13 15 17 19 20 20 20 21 20 19 17 14 13 11 8 5 0 354 348 340 333 326 321 318 314 309 305 299 293 288 284 279 272 257 231 200 171 162 174 172
16 10 9 14 14 15 17 18 18 19 19 19 18 16 15 13 12 11 8 5 1 355 347 340 331 321 314 309 304 298 292 286 281 275 270 265 261 245 219 187 171 168 173
23 14 12 16 15 15 16 16 16 17 17 16 16 15 13 11 10 10 8 5 2 359 355 347 339 328 318 310 303 295 288 282 276 272 264 258 257 254 233 203 188 180 179
26 17 13 17 16 16 16 16 15 15 15 14 14 12 11 9 7 7 6 3 1 359 356 352 347 338 327 316 307 297 286 279 274 268 260 257 258 264 248 217 199 190 186
27 20 16 18 17 16 16 15 14 14 13 11 10 9 8 7 5 4 4 1 358 357 354 352 350 347 340 327 314 302 291 281 275 265 257 255 255 260 255 224 204 196 192
27 23 20 19 17 16 16 15 13 13 11 10 8 6 6 5 3 2 2 358 356 354 352 351 350 348 345 340 327 312 299 289 277 261 255 253 252 258 255 226 208 201 197
30 25 23 20 18 16 14 14 12 11 10 8 6 5 4 3 1 1 360 356 353 352 350 349 349 347 345 342 340 332 316 301 284 267 256 252 253 255 250 230 213 205 202
32 27 23 20 17 14 13 12 11 10 9 7 6 4 4 3 1 360 357 354 352 350 349 348 347 345 342 341 341 341 335 319 294 274 265 257 256 255 247 234 219 211 205
31 27 22 20 16 11 9 9 9 8 7 6 5 4 4 4 1 359 355 352 351 349 349 348 346 344 342 340 339 339 336 331 311 283 268 262 260 258 251 237 223 215 208
26 23 21 20 15 10 7 6 6 6 5 4 3 3 5 3 359 358 353 351 350 348 349 347 345 344 343 339 337 337 338 335 324 302 279 268 266 262 255 243 228 219 212
18 17 21 21 14 9 6 2 4 3 1 1 360 1 4 2 358 357 351 350 349 348 348 345 344 344 342 336 334 336 334 332 329 319 300 283 274 269 262 248 235 223 217
18 18 18 21 13 8 5 2 4 1 360 359 359 1 4 1 358 355 351 347 345 347 346 343 341 341 339 335 331 330 331 330 325 321 314 305 294 280 271 255 242 229 221
27 16 11 22 14 8 7 2 4 1 359 357 356 1 4 360 357 354 349 343 343 345 342 340 337 335 337 333 330 329 329 326 319 316 314 314 310 297 282 265 246 234 224
29 13 7 21 15 9 9 4 2 360 358 354 355 1 2 359 355 352 345 341 341 344 341 338 335 334 333 330 328 327 324 320 314 313 311 310 311 305 293 276 252 237 228
30 16 8 19 14 8 8 3 0 358 356 354 355 359 360 356 353 350 343 339 344 343 338 336 329 330 327 326 324 323 318 314 312 312 308 306 306 307 302 286 261 240 230
35 20 13 13 9 6 5 2 359 355 355 354 355 358 356 354 353 349 341 341 344 341 337 335 328 329 325 324 321 318 315 313 311 308 305 301 299 302 303 296 273 248 234
40 26 16 11 5 2 360 356 353 353 353 352 355 356 354 353 352 347 340 343 344 342 339 333 332 330 326 322 319 315 313 311 306 301 299 297 297 295 297 297 285 262 243
42 25 12 5 360 355 352 351 348 349 351 351 353 354 352 352 350 345 340 344 344 342 339 336 336 330 325 323 318 314 312 306 298 297 299 299 296 292 290 292 288 276 258
36 23 11 360 355 352 351 350 349 350 351 351 351 351 352 350 348 344 345 344 345 341 338 334 332 328 325 322 320 315 306 295 289 290 302 310 308 305 300 294 288 280 266
27 14 4 353 346 351 352 353 350 347 344 345 348 347 348 348 346 344 347 343 343 339 334 333 332 328 330 328 323 320 303 282 281 307 316 319 335 343 330 316 300 285 272
16 356 354 348 341 347 346 339 336 327 323 333 334 339 345 345 343 346 344 340 339 335 331 333 329 329 328 330 325 322 318 312 337 318 306 316 341 341 338 336 328 309 283
355 345 359 344 338 341 342 341 342 327 322 333 332 337 340 339 338 340 337 336 335 332 329 327 325 329 326 323 321 316 316 320 325 299 302 323 337 330 330 329 333 329 307
337 342 347 339 333 336 340 342 345 345 337 333 331 326 329 333 334 337 334 334 333 329 325 324 330 320 320 320 318 301 300 302 303 310 312 320 321 323 322 328 326 320 319
352 348 340 334 329 332 336 334 334 331 325 326 327 324 323 327 330 332 332 333 329 326 321 319 320 319 317 313 311 310 306 301 287 294 304 314 318 311 315 314 310 308 309
352 344 337 334 330 330 332 330 329 327 327 330 332 329 330 326 327 327 330 329 326 323 320 318 318 315 312 308 308 304 304 302 303 304 301 307 308 310 310 301 297 296 301
Height
1611 1607 1603 1599 1596 1592 1589 1586 1583 1580 1578 1575 1573 1571 1569 1567 1565 1563 1560 1558 1556 1554 1553 1551 1550 1548 1547 1546 1545 1545 1544 1543 1543 1543 1542 1542 1541 1541 1541 1541 1541 1542 1542
1614 1609 1604 1600 1597 1594 1590 1587 1584 1581 1578 1575 1573 1570 1568 1565 1563 1561 1559 1557 1555 1553 1551 1549 1548 1546 1545 1544 1543 1542 1542 1541 1541 1541 1540 1540 1540 1540 1540 1540 1540 1541 1541
1614 1610 1605 1602 1598 1595 1591 1588 1585 1581 1578 1575 1572 1570 1567 1564 1562 1559 1557 1555 1553 1551 1549 1547 1545 1544 1542 1541 1540 1539 1539 1539 1538 1538 1538 1538 1538 1538 1538 1538 1539 1539 1540
1615 1611 1606 1603 1599 1595 1592 1588 1585 1581 1578 1575 1572 1569 1566 1563 1560 1558 1555 1553 1550 1548 1546 1544 1543 1541 1539 1538 1537 1536 1535 1535 1535 1535 1535 1535 1535 1535 1535 1536 1537 1538 1539
1615 1611 1607 1603 1599 1596 1592 1588 1584 1581 1577 1574 1571 1567 1564 1561 1558 1555 1553 1550 1548 1545 1543 1541 1539 1537 1536 1534 1533 1532 1532 1531 1531 1532 1532 1532 1532 1532 1533 1533 1534 1535 1537
1614 1611 1607 1603 1599 1595 1591 1588 1584 1580 1576 1573 1569 1566 1562 1559 1556 1553 1550 1547 1545 1542 1540 1537 1535 1533 1532 1530 1529 1528 1528 1527 1527 1527 1528 1528 1529 1529 1530 1530 1531 1532 1534
1614 1611 1607 1603 1599 1595 1591 1587 1582 1578 1574 1570 1566 1563 1559 1556 1553 1549 1547 1544 1541 1538 1536 1533 1531 1529 1527 1525 1524 1524 1523 1523 1523 1523 1523 1524 1525 1525 1526 1527 1528 1529 1531
1614 1611 1607 1603 1599 1594 1590 1586 1581 1576 1572 1567 1563 1559 1555 1552 1548 1545 1542 1539 1536 1534 1531 1528 1526 1524 1522 1521 1519 1518 1518 1518 1518 1518 1518 1519 1520 1521 1522 1523 1524 1526 1527
1614 1610 1606 1602 1597 1593 1588 1584 1579 1574 1569 1564 1559 1555 1551 1547 1543 1540 1537 1534 1531 1528 1525 1522 1520 1519 1517 1516 1514 1513 1512 1511 1511 1512 1513 1513 1515 1516 1517 1519 1520 1522 1523
1613 1609 1605 1600 1595 1591 1586 1581 1576 1571 1566 1561 1556 1551 1547 1543 1539 1535 1532 1529 1525 1522 1519 1516 1514 1512 1511 1510 1508 1507 1506 1506 1505 1506 1507 1508 1509 1510 1512 1513 1515 1517 1519
1611 1607 1603 1598 1593 1588 1583 1578 1573 1568 1563 1558 1553 1548 1543 1539 1535 1531 1527 1524 1520 1517 1513 1510 1508 1506 1504 1503 1502 1501 1500 1500 1499 1499 1500 1501 1503 1504 1506 1507 1509 1512 1514
1609 1605 1601 1596 1590 1585 1580 1575 1569 1565 1560 1555 1550 1545 1540 1536 1532 1527 1524 1520 1515 1512 1508 1505 1502 1500 1497 1496 1495 1494 1493 1493 1493 1492 1493 1495 1496 1497 1499 1501 1503 1506 1508
1610 1605 1599 1594 1588 1583 1577 1572 1567 1562 1557 1553 1548 1542 1537 1533 1528 1523 1519 1515 1511 1506 1503 1500 1497 1494 1491 1489 1488 1487 1486 1486 1486 1486 1486 1487 1488 1489 1491 1493 1496 1499 1502
1609 1604 1598 1592 1586 1581 1576 1570 1565 1560 1555 1550 1545 1540 1534 1529 1525 1520 1516 1512 1507 1502 1498 1495 1492 1488 1485 1483 1481 1480 1479 1479 1478 1478 1479 1480 1480 1481 1483 1485 1488 1491 1495
1607 1602 1596 1591 1585 1579 1574 1569 1564 1558 1553 1548 1544 1538 1533 1527 1522 1517 1513 1508 1504 1499 1495 1491 1487 1483 1480 1477 1475 1473 1472 1471 1471 1471 1471 1472 1473 1474 1475 1477 1480 1483 1487
1606 1601 1596 1590 1584 1579 1573 1568 1562 1557 1552 1547 1542 1536 1531 1526 1520 1515 1510 1505 1501 1496 1492 1487 1483 1478 1475 1471 1469 1466 1464 1463 1463 1463 1463 1464 1465 1467 1468 1470 1473 1476 1480
1605 1600 1594 1589 1583 1578 1572 1567 1562 1557 1551 1545 1540 1535 1529 1524 1518 1513 1508 1503 1498 1493 1488 1483 1479 1474 1470 1466 1463 1460 1458 1456 1455 1455 1456 1457 1458 1459 1461 1463 1466 1469 1472
1604 1599 1594 1588 1582 1577 1572 1566 1561 1555 1550 1544 1538 1533 1527 1521 1516 1511 1506 1501 1496 1490 1485 1480 1475 1470 1465 1460 1456 1453 1451 1449 1448 1448 1448 1449 1450 1451 1453 1456 1459 1462 1465
1603 1598 1592 1587 1581 1576 1570 1565 1559 1554 1548 1542 1536 1530 1524 1518 1513 1508 1503 1498 1493 1488 1483 1478 1473 1468 1462 1456 1451 1447 1444 1442 1442 1441 1441 1441 1442 1444 1446 1448 1451 1454 1458
1602 1597 1591 1586 1580 1574 1568 1562 1556 1551 1545 1540 1534 1528 1522 1516 1510 1505 1500 1495 1490 1484 1480 1475 1470 1465 1461 1455 1448 1442 1438 1436 1435 1435 1434 1434 1435 1436 1438 1440 1443 1447 1451
1601 1595 1589 1583 1577 1571 1564 1558 1551 1546 1541 1536 1531 1525 1519 1513 1508 1502 1497 1491 1486 1481 1476 1472 1467 1462 1457 1453 1446 1437 1432 1431 1429 1428 1428 1428 1428 1429 1431 1433 1436 1439 1443
1599 1594 1588 1582 1575 1569 1563 1557 1551 1545 1539 1533 1528 1522 1517 1511 1505 1499 1494 1488 1482 1477 1472 1468 1464 1459 1455 1452 1447 1440 1432 1426 1424 1423 1423 1422 1422 1423 1424 1426 1428 1432 1435
1597 1591 1586 1580 1574 1568 1561 1555 1548 1542 1535 1529 1523 1518 1513 1508 1502 1496 1490 1485 1479 1474 1469 1464 1461 1457 1452 1449 1448 1446 1439 1432 1424 1416 1417 1417 1417 1417 1418 1419 1422 1425 1428
1595 1590 1584 1578 1572 1566 1560 1553 1545 1538 1531 1525 1520 1514 1509 1504 1498 1493 1487 1481 1476 1470 1466 1461 1457 1454 1450 1446 1443 1442 1440 1436 1431 1420 1412 1412 1412 1412 1412 1413 1416 1419 1422
1594 1588 1583 1577 1571 1564 1558 1551 1544 1537 1531 1524 1517 1511 1505 1500 1494 1489 1483 1478 1472 1467 1462 1457 1453 1450 1446 1443 1440 1437 1435 1433 1430 1426 1415 1407 1406 1407 1407 1408 1410 1413 1416
1592 1586 1581 1574 1568 1562 1555 1549 1542 1535 1527 1520 1513 1506 1500 1495 1489 1485 1479 1474 1468 1463 1458 1453 1449 1445 1442 1439 1436 1433 1431 1429 1426 1423 1418 1410 1404 1401 1402 1403 1405 1407 1410